Regional Weather Roundup
Issued by NWS Upton, NY

Current Version | Previous Version | Text Only | Print | Product List | Glossary On
Versions: 1 2 3 4 5 6 7 8 9 10 11 12 13 14 15 16 17 18 19 20 21 22 23 24 25 26 27
000
ASUS41 KOKX 231009
RWROKX

REGIONAL WEATHER ROUNDUP
NATIONAL WEATHER SERVICE NEW YORK NY
600 AM EDT SAT SEP 23 2017

NOTE: "FAIR" INDICATES FEW OR NO CLOUDS BELOW 12,000 FEET WITH NO
SIGNIFICANT WEATHER AND/OR OBSTRUCTIONS TO VISIBILITY.

NYZ071-072-176-178-NJZ106-104-231100-
NEW YORK CITY METRO AREA

CITY           SKY/WX    TMP DP  RH WIND       PRES   REMARKS
Central Park   CLEAR     69  53  56 CALM      30.03R
Bronx Bot Gard   N/A     68  52  56 N5        30.00S
LaGuardia APRT PTCLDY    71  56  58 N13       29.98S
Kennedy INTL   PTCLDY    70  55  59 N12       29.99R
Breezy Point     N/A     70 N/A N/A N7          N/A
Newark/Liberty PTCLDY    70  51  51 N12       30.00R
Teterboro      CLEAR     67  52  58 NW9       29.99S
$$

NYZ177-179-078>081-231100-
LONG ISLAND NEW YORK

CITY           SKY/WX    TMP DP  RH WIND       PRES   REMARKS
Jones Beach      N/A     68 N/A N/A N10         N/A
Matinecock PT    N/A     70 N/A N/A N7          N/A
Farmingdale    PTCLDY    69  56  62 N8        29.98R
MacArthur/ISP  MOCLDY    69  57  65 N9        29.97R
Shirley        CLOUDY    71  57  61 N13G20    29.97R
Mt Sinai Harb    N/A    N/A N/A N/A N15G22      N/A
Westhampton    MOCLDY    68  56  65 N18G25    29.95S
East Hampton   FAIR      65  59  79 N13G21    29.94R
Montauk          N/A     66  62  87 N13G24    29.94R
$$

NYZ052-065-067-231100-
HUDSON VALLEY

CITY           SKY/WX    TMP DP  RH WIND       PRES   REMARKS
White Plains   CLEAR     65  53  65 NW10      30.00R
Larchmont Harb   N/A     68 N/A N/A NW9         N/A
Croton On Huds   N/A     64 N/A N/A CALM        N/A
Newburgh       PTCLDY    59  54  82 CALM      30.05R
Montgomery     CLEAR     55  53  93 CALM      30.04R
Poughkeepsie   CLEAR     57  52  83 CALM      30.02R
Albany         CLEAR     55  51  86 CALM      30.04F
$$

NJZ001-105-106-008-010-013-015-019>022-104-231100-
NEW JERSEY

CITY           SKY/WX    TMP DP  RH WIND       PRES   REMARKS
Newark/Liberty PTCLDY    70  51  51 N12       30.00R
Teterboro      CLEAR     67  52  58 NW9       29.99S
Caldwell       CLEAR     65  53  65 VRB3      30.02S
Somerville     NOT AVBL
Linden         FAIR      67  51  56 CALM      30.00S
Perth Amboy      N/A     68 N/A N/A NW8         N/A
Sussex         CLEAR     54  54 100 CALM      30.05S
Andover          N/A     56  55  97 CALM      30.05S
Trenton        CLEAR     67  53  61 N6        30.01S
Millville      CLEAR     68  58  70 N7        30.01R
Atlantic City  CLOUDY    69  57  65 N8        30.00R
Wrightstown    CLEAR     64  54  70 NW5       29.98R
Toms River     PTCLDY    66  55  67 N7        30.00R
Belmar         CLEAR     66  54  65 NW8       30.00S
$$

PAZ047>061-062-071-231100-
EASTERN PENNSYLVANIA

CITY           SKY/WX    TMP DP  RH WIND       PRES   REMARKS
Philadelphia   PTCLDY    68  51  54 N6        30.03R
Allentown      CLEAR     62  53  72 CALM      30.04S
Scranton       PTCLDY    53  51  93 CALM      30.09R
$$

CTZ002-004>006-009-010-012-RIZ004-006-007-MAZ004-011-015-231100-
SOUTHERN NEW ENGLAND
 IN CT

CITY           SKY/WX    TMP DP  RH WIND       PRES   REMARKS
Bradley INTL   PTCLDY    64  50  60 N5        30.00S
Hartford       PTCLDY    68  51  54 N8        30.00R
Danbury        CLEAR     68  55  63 CALM      30.02R
Wtrbury/Oxford CLEAR     65  56  72 N10       30.01R
Norwalk Harbor   N/A     68 N/A N/A NW14        N/A
Bridgeport     MOCLDY    70  55  59 NE9       29.98R
Meriden        CLOUDY    68  50  52 N8        29.99R
New Haven      CLOUDY    70  51  51 N14G25    29.97R
Chester        PTSUNNY   66  55  68 N8G18     29.98R
Groton         PTCLDY    65  57  75 N17G25    29.94R
Wilimantic     CLOUDY    68  56  65 N9        30.00R

 IN RI

CITY           SKY/WX    TMP DP  RH WIND       PRES   REMARKS
Providence     CLOUDY    62  61  96 N13       29.98R
Block Island   CLOUDY    63  61  93 N16G26    29.93R
Westerly       MOCLDY    65  59  81 N16       29.94S
 IN MA

CITY           SKY/WX    TMP DP  RH WIND       PRES   REMARKS
Boston         CLOUDY    61  60  97 N14       30.00R
Worcester      MOCLDY    62  47  57 N9        30.02S
Westfield      CLEAR     66  51  58 N6        30.01S
Provincetown   FOG       59  59 100 NE14G23   29.95S VSB 3/4
Nantucket      LGT RAIN  62  62 100 NE21G30   29.88R FOG
$$

ANZ330-335-338-340-345-350-353-355-231100-
COASTAL MARINE OBSERVATIONS


STATION/POSITION TIME  SKY/WX   TEMP    WIND        PRES    VSBY  WAVE
                                AIR SEA DIR/SP/G                  HT/PER
                 (UTC)          (F)     (DEG/KT/KT) (MB)    (MI)  (FT/S)
NY HARB ENTRANCE 0850            71 70  350/ 16/ 19 1013.8          4/ 7
20 S FIRE ISLAND 0850            69 66  360/ 19/ 21 1013.6          6/ 8
GREAT SOUTH BAY  0930            70 69   10/ 16/ 19   N/A
23 SSW MONTAUK P 0850            65 65              1012.2          6/ 7
15 E BARNEGAT LI 0930               69                N/A           6/ 5
HUDSON CANYON    0850            67 69  360/ 19/ 23 1011.7          8/ 8
KINGS POINT      0948            69 71   20/ 11/ 13 1016.2
EXECUTION ROCKS  0945            70     310/  8/ 10   N/A
WESTERN LI SOUND NOT AVBL
CENTRAL LI SOUND 0930            70      10/ 17/ 21   N/A           2
EASTERN LI SOUND NOT AVBL
ROBBINS REEF     0948            70     340/ 11/ 15 1016.1
$$


>>>>>>>>>>>>>>>>>>>>>>>>>>>> KEY <<<<<<<<<<<<<<<<<<<<<<<<<<<
>                                                          <
>     SKY/WX - Sky Condition/Present Weather               <
>     TMP    - Temperature in Fahrenheit                   <
>     DP     - Dew Point in Fahrenheit                     <
>     RH     - Relative Humidity in Percent                <
>     WIND   - Direction (from) and Speed in MPH           <
>     PRES   - Mean Sea Level Pressure (inches of Hg)      <
>     WCI    - Wind Chill Index                            <
>     VSB    - VISIBILITY IN MILES                         <
>     HX     - HEAT INDEX                                  <
>     TC     - TEMPERATURE IN CELSIUS                      <
>     VRB    - VARIABLE WIND DIRECTION                     <
>                                                          <
>>>>>>>>>>>>>>>>>>>>>>>>>>>> KEY <<<<<<<<<<<<<<<<<<<<<<<<<<<




USA.gov is the U.S. government's official web portal to all federal, state and local government web resources and services.